カタログに戻る

STARLINK-34946

運用中通信VLEO
NORAD 65367·PAYLOAD·🇺🇸 United States

打ち上げ Aug 28, 2025 から Cape Canaveral Space Force Station

Loading…

次のパス (今後24時間)

TLE

最新Source: CelesTrak SupGP

元期: Sep 15, 2026, 02:46 UTC

1 65367C 25190S   26258.11576389  .00060081  00000+0  17749-2 0  2589
2 65367  53.1596   4.9541 0001097  79.5626 311.1209 15.34364340    14

AllMySatでSTARLINK-34946をリアルタイム追跡

Download on the App Store